Flag for Poland Weather past 2 weeks in Białystok, Poland

Now
48 °F

Clear.


Feels Like: 48 °F
Forecast: 46 / 78 °F
Wind: 1 mph from West

Location: Bialystok

Current Time: Aug 2, 2015 at 1:02:05 AM

Latest Report: Aug 1, 2015 at 10:00 PM


Visibility: 7 mi

Pressure: 30.20 "Hg

Humidity: 93%

Dew point: 46 °F

Location of BiałystokLocation

Historic Weather in Białystok — Graph

°F

Białystok temperature yesterday

Maximum temperature yesterday: 66 °F (at 5:00 PM)
Minimum temperature yesterday: 48 °F (at 10:00 PM)
Average temperature yesterday: 58 °F

Past Weeks' High & Low Weather Summary

 TemperatureHumidityPressure
High84 °F (Jul 18, 4:00 PM)99% (Jul 21, 5:00 AM)30.20 "Hg (Jul 21, 5:00 AM)
Low43 °F (Jul 18, 4:00 AM)35% (Jul 18, 3:00 PM)29.62 "Hg (Jul 28, 3:00 PM)
Average64 °F71%29.88 "Hg
* Reported Midnight between Jul 17 and Jul 18 — Aug 1 10:00 PM, Białystok, Weather by CustomWeather, © 2015

Note: Actual official high and low records may vary slightly from our data, if they occured in-between our weather recording intervals... More about our weather records

Advertising

Białystok weather history for previous 24 hours

 ConditionsComfort  
Time TempWeatherWind HumidityBarometerVisibility
10:00 PM
Sat, Aug 1
48 °FClear.1 mph93%30.20 "Hg7 mi
9:00 PM51 °FClear.No wind87%30.19 "Hg16 mi
8:00 PM56 °FPassing clouds.No wind77%30.16 "Hg25 mi
7:00 PM65 °FScattered clouds.1 mph44%30.16 "Hg22 mi
6:00 PM66 °FPartly sunny.2 mph42%30.15 "Hg19 mi
5:00 PM66 °FPartly sunny.3 mph41%30.15 "Hg22 mi
4:00 PM65 °FPartly sunny.2 mph44%30.15 "Hg25 mi
3:00 PM66 °FPartly sunny.3 mph42%30.16 "Hg19 mi
2:00 PM64 °FPartly sunny.3 mph43%30.17 "Hg22 mi
1:00 PM64 °FOvercast.2 mph44%30.17 "Hg22 mi
12:00 PM62 °FPartly sunny.3 mph47%30.17 "Hg22 mi
11:00 AM63 °FPartly sunny.3 mph47%30.16 "Hg22 mi
10:00 AM62 °FPartly sunny.3 mph54%30.16 "Hg19 mi
9:00 AM59 °FScattered clouds.2 mph65%30.15 "Hg18 mi
8:00 AM56 °FPassing clouds.2 mph80%30.14 "Hg19 mi
7:00 AM53 °FPassing clouds.2 mph91%30.14 "Hg15 mi
4:00 AM48 °FFog.1 mph97%30.11 "Hg5 mi
3:00 AM50 °FFog.1 mph97%30.11 "Hg5 mi
2:00 AM51 °FClear.1 mph97%30.10 "Hg7 mi
1:00 AM51 °FClear.2 mph95%30.09 "Hg13 mi
Weather by CustomWeather, © 2015

See weather overviewHow to use our weather pages